Overview Statistics Trail Chart Weather Telemetry Raw packets
 

This is the latest recevied weather packets stored in our database for station/object VE7OTD. If no packets are shown the sender has not sent any weather packets the latest 10 day(s).

<< 8 9 10 11 >>
Time Temp. Humidity Pressure Rain* Wind** Luminosity Snow
1787870465 18.89° C 80% 1014.1 hPa 0 mm - - -
1787868649 18.89° C 83% 1014 hPa 0 mm - - -
1787867360 18.89° C 83% 1014 hPa 0 mm - - -
1787866826 17.78° C 90% 1014 hPa 2.54 mm - - -
1787866704 17.22° C 93% 1014.1 hPa 2.54 mm - - -
1787816015 15.56° C 81% 1013.5 hPa 0 mm - - -
1787814200 15.56° C 79% 1013.5 hPa 0 mm - - -
1787812385 16.11° C 79% 1013.2 hPa 0 mm - - -
1787810570 16.67° C 76% 1013.4 hPa 0 mm - - -
1787808755 17.22° C 74% 1013.5 hPa 0 mm - - -
1787806940 16.67° C 79% 1013.4 hPa 0 mm - - -
1787805140 17.78° C 75% 1013.2 hPa 0 mm - - -
1787803320 18.89° C 72% 1013 hPa 0 mm - - -
1787801487 18.89° C 73% 1012.9 hPa 0 mm - - -
1787799679 19.44° C 71% 1012.5 hPa 0 mm - - -
1787797864 20.56° C 69% 1012.4 hPa 0 mm - - -
1787796049 20.56° C 66% 1012.3 hPa 0 mm - - -
1787794234 21.11° C 66% 1012.5 hPa 0 mm - - -
1787792419 21.67° C 66% 1012.4 hPa 0 mm - - -
1787790614 22.78° C 63% 1012.5 hPa 0 mm - - -

* Rain latest hour (hover to see other rain measurements)
** Current wind speed in m/s (hover to see current wind gust speed)